Regional Weather Roundup
Issued by NWS Cleveland, OH

Home | Current Version | Previous Version | Graphics & Text | Print | Product List | Glossary On
Versions: 1 2 3 4 5 6 7 8 9 10 11 12 13 14 15 16 17 18 19 20 21 22 23 24 25 26 27 28 29 30 31 32 33 34 35 36 37 38 39 40 41 42 43 44 45 46 47 48 49 50
000
ASUS41 KCLE 221412
RWRCLE
OHIO REGIONAL WEATHER ROUNDUP
NATIONAL WEATHER SERVICE WILMINGTON, OH
900 AM EST THU FEB 22 2024

NOTE: "FAIR" INDICATES FEW OR NO CLOUDS BELOW 12,000 FEET WITH NO
SIGNIFICANT WEATHER AND/OR OBSTRUCTIONS TO VISIBILITY.

OHZ001>008-015>018-024>027-034-035-043-044-221500-
   NORTHWEST OHIO

CITY           SKY/WX    TMP DP  RH WIND       PRES   REMARKS
DEFIANCE       LGT RAIN  47  45  93 S9        29.72F FOG
FINDLAY        RAIN      46  41  82 S12       29.73S
TOLEDO EXPRESS LGT RAIN  47  43  86 S7        29.71F FOG
TOLEDO EXEC    LGT RAIN  47  43  86 SE8       29.74F FOG
LIMA           LGT RAIN  46  46 100 SE10      29.73F
$$

OHZ009>014-019>023-028>033-038-089-221500-
   NORTHEAST OHIO

CITY           SKY/WX    TMP DP  RH WIND       PRES   REMARKS
CLE-HOPKINS    LGT RAIN  46  41  82 S8        29.76F
CLE-LAKEFRONT  LGT RAIN  48  41  76 SE8       29.76F
CUY CO. ARPT   LGT RAIN  45  43  93 S7        29.77F
LORAIN-ELYRIA  LGT RAIN  45  40  82 S8        29.76F
ASHTABULA      LGT RAIN  44  41  89 S7        29.79F
AKRON-CANTON   LGT RAIN  43  38  82 S13       29.79F
WOOSTER        LGT RAIN  44  37  76 S12       29.79S
MANSFIELD      LGT RAIN  43  41  93 S12       29.77S
YOUNGSTOWN     CLOUDY    43  38  82 SE8       29.79F
$$

OHZ042-051>053-060>062-070>072-077>081-221500-
  SOUTHWEST OHIO

CITY           SKY/WX    TMP DP  RH WIND       PRES   REMARKS
CINC-COVINGTON CLOUDY    57  43  59 SW12      29.73F
CINC-LUNKEN    CLOUDY    60  44  55 S13       29.75F
HAMILTON       CLOUDY    60  43  53 VRB7      29.73F
DAYTON         CLOUDY    52  41  66 NE5       29.72F
WRIGHT-PAT AFB CLOUDY    51  43  74 NE5       29.71F
DAYTON GENERAL CLOUDY    57  39  51 SW8       29.71F
WILMINGTON     CLOUDY    57  39  51 SW16      29.72F
$$

OHZ036-037-039>041-045>050-054>059-063>069-073>076-082>088-221500-
  CENTRAL AND SOUTHEAST OHIO

CITY           SKY/WX    TMP DP  RH WIND       PRES   REMARKS
COLUMBUS       CLOUDY    47  43  86 VRB6      29.75F
OSU AIRPORT    CLOUDY    48  43  82 NE5       29.75F
BOLTON FIELD   RAIN      46  37  71 CALM      29.76F
RICKENBACK AFB CLOUDY    50  36  57 S8        29.74F
NEWARK         NOT AVBL
MARION         LGT RAIN  45  43  93 SE6       29.76F FOG
LANCASTER      CLOUDY    48  39  71 SE9       29.75F
ZANESVILLE     LGT RAIN  46  41  82 NE5       29.79S
NEW PHILLY     LGT RAIN  42  42 100 CALM      29.82F FOG
$$



USA.gov is the U.S. government's official web portal to all federal, state and local government web resources and services.